Flag for Germany Weather past 2 weeks in Kassel, Hesse, Germany

Now
54 °F

Broken clouds.


Feels Like: 50 °F
Forecast: 42 / 65 °F
Wind: 12 mph from West

Location: Kassel / Calden

Current Time: May 27, 2015 at 2:42:49 PM

Latest Report: May 27, 2015 at 2:20 PM


Visibility: N/A

Pressure: 30.21 "Hg

Humidity: 54%

Dew point: 37 °F

Location of KasselLocation

Historic Weather in Kassel — Graph

°F

Kassel temperature yesterday

Maximum temperature yesterday: 55 °F (at 2:20 PM)
Minimum temperature yesterday: 46 °F (at 6:20 AM)
Average temperature yesterday: 50 °F

Past Weeks' High & Low Weather Summary

 TemperatureHumidityPressure
High79 °F (May 12, 2:50 PM)100% (May 25, 7:20 AM)30.33 "Hg (May 25, 7:20 AM)
Low37 °F (May 16, 5:50 AM)34% (May 22, 3:20 PM)29.65 "Hg (May 18, 7:20 PM)
Average55 °F64%30.04 "Hg
* Reported May 12 1:20 PM — May 27 1:20 PM, Kassel, Weather by CustomWeather, © 2015

Note: Actual official high and low records may vary slightly from our data, if they occured in-between our weather recording intervals... More about our weather records

Advertising

Kassel weather history for previous 24 hours

 ConditionsComfort  
Time TempWeatherWind HumidityBarometerVisibility
1:20 PM
Wed, May 27
54 °FBroken clouds.12 mph58%30.21 "HgN/A
12:50 PM52 °FMore clouds than sun.10 mph62%30.21 "HgN/A
12:20 PM52 °FMore clouds than sun.12 mph67%30.21 "HgN/A
11:50 AM54 °FMore clouds than sun.13 mph63%30.21 "HgN/A
11:20 AM52 °FMore clouds than sun.14 mph72%30.21 "HgN/A
10:50 AM50 °FMore clouds than sun.12 mph71%30.24 "HgN/A
10:20 AM50 °FMore clouds than sun.10 mph71%30.24 "HgN/A
9:50 AM50 °FMostly cloudy.8 mph76%30.24 "HgN/A
9:20 AM48 °FOvercast.8 mph76%30.24 "HgN/A
8:50 AM48 °FPartly sunny.7 mph82%30.24 "HgN/A
8:20 AM46 °FOvercast.8 mph82%30.24 "HgN/A
7:50 AM46 °FPartly sunny.5 mph82%30.21 "HgN/A
7:20 AM46 °FPartly sunny.5 mph82%30.21 "HgN/A
6:50 AM45 °FOvercast.1 mph87%30.21 "HgN/A
6:20 AM45 °FPartly sunny.2 mph87%30.21 "HgN/A
9:50 PM
Tue, May 26
48 °FBroken clouds.5 mph87%30.15 "HgN/A
9:20 PM48 °FBroken clouds.6 mph87%30.15 "HgN/A
8:50 PM48 °FScattered showers. Broken clouds.9 mph87%30.15 "HgN/A
8:20 PM50 °FLight rain. Mostly cloudy.7 mph76%30.15 "HgN/A
7:50 PM50 °FBroken clouds.7 mph62%30.12 "HgN/A
7:20 PM50 °FBroken clouds.9 mph76%30.12 "HgN/A
6:50 PM52 °FBroken clouds.12 mph72%30.12 "HgN/A
6:20 PM50 °FPartly sunny.9 mph76%30.12 "HgN/A
5:50 PM50 °FBroken clouds.13 mph76%30.12 "HgN/A
5:20 PM50 °FBroken clouds.13 mph82%30.12 "HgN/A
4:50 PM54 °FBroken clouds.13 mph58%30.09 "HgN/A
4:20 PM54 °FPartly sunny.10 mph63%30.09 "HgN/A
3:50 PM52 °FPartly sunny.13 mph62%30.09 "HgN/A
3:20 PM52 °FPartly sunny.18 mph62%30.09 "HgN/A
2:50 PM54 °FBroken clouds.16 mph58%30.09 "HgN/A
2:20 PM55 °FBroken clouds.13 mph55%30.07 "HgN/A
Weather by CustomWeather, © 2015

See weather overviewHow to use our weather pages